TimeEST,TemperatureF,Dew PointF,Humidity,Sea Level PressureIn,VisibilityMPH,Wind Direction,Wind SpeedMPH,Gust SpeedMPH,PrecipitationIn,Events,Conditions,WindDirDegrees,DateUTC
12:53 AM,33.1,28.0,82,30.23,7.0,Calm,Calm,-,N/A,,Overcast,0,2012-11-27 05:53:00
2:53 AM,34.0,28.9,82,30.23,8.0,Calm,Calm,-,N/A,,Overcast,0,2012-11-27 07:53:00
3:53 AM,35.1,30.0,82,30.22,7.0,SSE,4.6,-,0.00,,Overcast,150,2012-11-27 08:53:00
4:53 AM,36.0,30.0,79,30.24,6.0,Calm,Calm,-,0.00,Rain,Light Rain,0,2012-11-27 09:53:00
5:02 AM,35.6,30.2,81,30.22,4.0,Calm,Calm,-,0.01,Rain,Rain,0,2012-11-27 10:02:00
5:53 AM,35.1,30.9,85,30.23,3.0,Calm,Calm,-,0.10,Rain,Light Rain,0,2012-11-27 10:53:00
6:39 AM,35.6,32.0,87,30.21,3.0,NNE,4.6,-,0.08,Rain,Light Rain,30,2012-11-27 11:39:00
6:50 AM,33.8,32.0,93,30.21,3.0,NE,5.8,-,0.10,Rain,Light Rain,40,2012-11-27 11:50:00
6:53 AM,34.0,30.9,89,30.23,3.0,NE,5.8,-,0.10,Rain,Light Rain,50,2012-11-27 11:53:00
7:06 AM,33.8,30.2,87,30.20,2.5,NE,8.1,-,0.03,Snow,Light Snow,50,2012-11-27 12:06:00
7:13 AM,33.8,30.2,87,30.21,2.0,NE,6.9,-,0.04,Snow,Light Snow,40,2012-11-27 12:13:00
7:23 AM,33.8,30.2,87,30.21,1.5,NE,5.8,-,0.05,Snow,Light Snow,40,2012-11-27 12:23:00
7:40 AM,33.8,30.2,87,30.22,2.0,NNE,4.6,-,0.07,Snow,Light Snow,30,2012-11-27 12:40:00
7:51 AM,33.8,30.2,87,30.22,1.5,NNE,4.6,-,0.07,Snow,Light Snow,20,2012-11-27 12:51:00
7:52 AM,33.1,30.9,92,30.25,1.5,North,4.6,-,0.07,Snow,Light Snow,10,2012-11-27 12:52:00
8:05 AM,33.8,30.2,87,30.21,0.8,NE,4.6,-,0.02,Snow,Light Snow,40,2012-11-27 13:05:00
8:14 AM,33.8,30.2,87,30.22,1.2,North,4.6,-,0.03,Snow,Light Snow,360,2012-11-27 13:14:00
8:41 AM,33.8,30.2,87,30.22,1.0,Variable,4.6,-,0.04,Snow,Light Snow,0,2012-11-27 13:41:00
8:51 AM,33.8,30.2,87,30.23,0.8,NNE,4.6,-,0.05,Snow,Light Snow,20,2012-11-27 13:51:00
8:53 AM,33.1,30.9,92,30.25,0.8,NNE,4.6,-,0.05,Snow,Light Snow,30,2012-11-27 13:53:00
9:45 AM,33.8,30.2,87,30.24,1.0,NNE,3.5,-,0.03,Snow,Light Snow,30,2012-11-27 14:45:00
9:53 AM,33.1,30.9,92,30.26,0.8,NE,3.5,-,0.03,Snow,Light Snow,40,2012-11-27 14:53:00
10:18 AM,33.8,30.2,87,30.25,0.8,North,3.5,-,0.01,Snow,Light Snow,350,2012-11-27 15:18:00
10:53 AM,33.1,30.9,92,30.26,1.0,NNE,4.6,-,0.03,Snow,Light Snow,30,2012-11-27 15:53:00
11:53 AM,34.0,32.0,92,30.24,1.2,Calm,Calm,-,0.00,Snow,Light Snow,0,2012-11-27 16:53:00
12:40 PM,33.8,32.0,93,30.21,1.0,North,4.6,-,0.00,Snow,Light Snow,350,2012-11-27 17:40:00
12:51 PM,33.8,32.0,93,30.21,1.2,North,4.6,-,0.00,Snow,Light Snow,10,2012-11-27 17:51:00
12:53 PM,34.0,32.0,92,30.24,1.2,North,3.5,-,0.00,Snow,Light Snow,10,2012-11-27 17:53:00
1:25 PM,35.6,32.0,87,30.20,2.0,NNE,6.9,-,0.00,Snow,Light Snow,20,2012-11-27 18:25:00
1:34 PM,35.6,32.0,87,30.20,2.5,North,6.9,-,0.00,,Overcast,10,2012-11-27 18:34:00
1:43 PM,35.6,32.0,87,30.20,3.0,North,5.8,-,0.00,,Overcast,10,2012-11-27 18:43:00
1:53 PM,35.1,33.1,92,30.23,4.0,North,3.5,-,0.00,,Overcast,360,2012-11-27 18:53:00
2:53 PM,35.1,33.1,92,30.23,4.0,North,4.6,-,0.00,,Overcast,350,2012-11-27 19:53:00
3:07 PM,35.6,32.0,87,30.21,4.0,NNW,5.8,-,N/A,,Overcast,340,2012-11-27 20:07:00
3:53 PM,36.0,33.1,89,30.23,4.0,Calm,Calm,-,N/A,,Overcast,0,2012-11-27 20:53:00
4:10 PM,35.6,33.8,93,30.21,4.0,NNW,3.5,-,N/A,,Overcast,330,2012-11-27 21:10:00
4:53 PM,35.1,33.1,92,30.23,4.0,NNW,6.9,-,N/A,,Overcast,330,2012-11-27 21:53:00
5:31 PM,35.6,32.0,87,30.22,8.0,NNW,3.5,-,N/A,,Scattered Clouds,330,2012-11-27 22:31:00
5:53 PM,34.0,32.0,92,30.25,5.0,WNW,4.6,-,N/A,,Mostly Cloudy,300,2012-11-27 22:53:00
6:16 PM,33.8,32.0,93,30.23,6.0,NW,5.8,-,N/A,,Mostly Cloudy,310,2012-11-27 23:16:00
6:23 PM,33.8,30.2,87,30.23,6.0,NW,6.9,-,N/A,,Scattered Clouds,310,2012-11-27 23:23:00
6:53 PM,33.1,30.9,92,30.26,6.0,NW,4.6,-,N/A,,Mostly Cloudy,310,2012-11-27 23:53:00
7:53 PM,34.0,30.9,89,30.26,5.0,Calm,Calm,-,N/A,,Overcast,0,2012-11-28 00:53:00
8:53 PM,34.0,30.9,89,30.27,5.0,Calm,Calm,-,N/A,,Overcast,0,2012-11-28 01:53:00
9:53 PM,34.0,32.0,92,30.28,5.0,Calm,Calm,-,N/A,,Overcast,0,2012-11-28 02:53:00
10:53 PM,34.0,32.0,92,30.27,5.0,Calm,Calm,-,N/A,,Overcast,0,2012-11-28 03:53:00
11:53 PM,34.0,32.0,92,30.26,3.0,Calm,Calm,-,N/A,,Overcast,0,2012-11-28 04:53:00